Temperature
11 11 11 11 10 10 10 10 9 9 8 8 7 7 6 6 6 5 5 4 4 3 3 3 2 2 1 1 0 -0 -1 -2 -2 -2 -2 -2 -2 -2 -2 -2 -2 -2 -3
11 11 11 11 10 10 10 9 9 8 8 7 7 6 6 6 5 5 4 4 3 3 3 2 2 1 1 0 -0 -1 -1 -2 -3 -3 -3 -3 -3 -3 -3 -3 -3 -4 -4
11 11 10 10 10 10 9 9 8 8 7 7 6 6 6 5 5 4 4 3 3 2 2 2 1 1 0 -0 -1 -1 -2 -2 -3 -4 -4 -4 -4 -4 -4 -4 -4 -4 -4
11 10 10 10 10 9 9 8 8 7 7 6 6 5 5 5 4 3 3 3 2 2 2 1 1 0 -0 -1 -1 -2 -2 -3 -4 -4 -4 -5 -5 -5 -5 -5 -5 -5 -5
10 10 10 10 9 9 8 8 7 7 6 6 5 5 4 4 4 3 3 2 2 1 1 1 0 0 -0 -1 -2 -2 -3 -4 -4 -4 -5 -5 -5 -5 -5 -5 -5 -5 -5
10 10 9 9 9 8 8 7 6 6 6 5 5 4 4 4 3 3 2 1 1 1 0 0 -0 -0 -1 -1 -2 -3 -3 -4 -4 -5 -5 -5 -5 -5 -5 -5 -6 -6 -5
10 9 9 8 8 8 7 6 6 5 5 5 4 4 3 3 3 2 2 1 0 0 -0 -1 -1 -1 -2 -2 -2 -3 -4 -4 -5 -5 -5 -5 -5 -5 -6 -6 -6 -6 -6
9 9 8 8 7 7 6 6 5 5 5 4 4 3 3 3 2 2 1 1 0 -0 -1 -1 -2 -2 -2 -3 -3 -4 -4 -5 -5 -5 -5 -5 -6 -6 -6 -6 -6 -6 -6
8 8 8 7 7 6 6 5 5 4 4 4 3 3 2 2 2 1 1 0 -0 -1 -1 -2 -2 -2 -3 -4 -4 -5 -5 -5 -5 -5 -5 -5 -5 -5 -6 -6 -6 -6 -6
8 7 7 7 6 6 5 5 4 4 3 3 3 2 2 2 1 1 0 -0 -1 -2 -2 -2 -3 -3 -3 -4 -5 -5 -5 -5 -5 -5 -6 -6 -6 -6 -6 -6 -7 -7 -7
7 6 6 6 6 5 5 4 4 3 3 2 2 2 2 1 1 0 -0 -1 -2 -3 -3 -3 -4 -4 -4 -5 -5 -5 -5 -5 -6 -6 -6 -6 -6 -7 -7 -7 -7 -7 -8
6 6 5 5 5 4 4 3 3 2 2 2 1 1 1 0 0 -0 -1 -1 -2 -3 -4 -4 -4 -5 -5 -5 -5 -5 -6 -6 -6 -6 -7 -7 -7 -7 -7 -7 -7 -8 -8
5 5 5 4 4 4 3 3 2 2 2 1 1 0 0 -0 -1 -1 -2 -2 -3 -4 -4 -5 -5 -5 -6 -6 -6 -6 -6 -6 -7 -7 -7 -7 -8 -8 -8 -8 -8 -8 -8
5 4 4 4 3 3 3 2 2 1 1 0 -0 -0 -1 -1 -2 -2 -3 -4 -4 -4 -5 -5 -5 -6 -6 -6 -6 -7 -7 -7 -7 -8 -8 -8 -8 -8 -8 -8 -8 -8 -8
4 4 3 3 3 2 2 2 1 1 0 -0 -1 -1 -2 -2 -2 -3 -4 -5 -5 -5 -6 -6 -6 -6 -6 -6 -7 -7 -7 -8 -8 -8 -9 -9 -9 -9 -9 -9 -9 -9 -9
3 3 3 2 2 1 1 1 1 0 -0 -1 -1 -2 -2 -3 -3 -4 -5 -5 -6 -6 -6 -7 -7 -7 -7 -7 -8 -8 -8 -8 -9 -9 -9 -9 -9 -9 -9 -9 -9 -9 -9
3 2 2 1 1 1 0 -0 -1 -1 -1 -2 -2 -3 -3 -4 -4 -5 -6 -6 -6 -7 -7 -7 -7 -8 -8 -8 -8 -9 -9 -9 -9 -9 -9 -10 -10 -10 -10 -10 -9 -9 -9
2 1 1 1 0 -0 -1 -1 -2 -2 -3 -3 -3 -4 -4 -5 -5 -6 -6 -7 -7 -8 -8 -8 -8 -8 -9 -9 -9 -9 -9 -10 -10 -10 -10 -10 -10 -10 -10 -10 -10 -10 -9
1 0 0 -0 -1 -1 -2 -2 -3 -3 -4 -5 -5 -5 -6 -6 -7 -7 -7 -8 -8 -8 -9 -9 -9 -9 -9 -10 -10 -10 -10 -10 -10 -10 -10 -10 -11 -10 -10 -10 -10 -10 -10
0 -0 -1 -1 -2 -2 -3 -4 -4 -5 -5 -6 -6 -6 -7 -7 -8 -8 -8 -9 -9 -9 -9 -10 -10 -10 -10 -10 -10 -11 -11 -11 -11 -11 -11 -11 -11 -11 -11 -10 -10 -10 -10
-1 -1 -2 -2 -3 -3 -4 -5 -6 -6 -6 -7 -7 -8 -8 -9 -9 -9 -9 -10 -10 -10 -10 -10 -10 -11 -11 -11 -11 -11 -11 -11 -11 -11 -11 -11 -11 -11 -11 -11 -11 -10 -10
-2 -2 -3 -4 -4 -5 -6 -6 -7 -7 -8 -8 -8 -9 -9 -10 -10 -10 -10 -10 -10 -11 -11 -11 -11 -11 -11 -11 -11 -12 -12 -12 -12 -12 -12 -12 -12 -11 -11 -11 -11 -11 -10
-3 -4 -4 -5 -6 -6 -7 -7 -8 -9 -9 -9 -10 -10 -10 -10 -11 -11 -11 -11 -11 -11 -11 -11 -12 -12 -12 -12 -12 -12 -12 -12 -12 -12 -12 -12 -12 -12 -12 -11 -11 -11 -11
-4 -5 -6 -6 -7 -8 -8 -9 -9 -10 -10 -10 -11 -11 -11 -11 -11 -11 -12 -12 -12 -12 -12 -12 -12 -12 -12 -12 -12 -13 -13 -13 -13 -13 -13 -13 -12 -12 -12 -12 -11 -11 -11
-5 -6 -7 -8 -8 -9 -9 -10 -10 -10 -11 -11 -11 -12 -12 -12 -12 -12 -12 -12 -12 -13 -13 -13 -13 -13 -13 -13 -13 -13 -13 -13 -13 -13 -13 -13 -12 -12 -12 -12 -11 -11 -11
-7 -7 -8 -9 -9 -10 -10 -11 -11 -11 -12 -12 -12 -12 -12 -12 -13 -13 -13 -13 -13 -13 -13 -13 -13 -13 -13 -13 -13 -13 -13 -13 -13 -13 -13 -13 -12 -12 -12 -12 -11 -11 -11
Wind_Speed
15 14 13 13 12 12 11 11 11 10 10 9 8 7 7 6 6 6 6 6 7 7 7 8 9 9 8 8 8 9 10 11 15 15 13 14 16 17 16 18 19 20 19
14 14 14 13 13 12 12 11 11 10 9 9 8 7 7 7 7 7 7 7 8 9 9 9 10 9 11 10 9 11 11 12 14 18 15 14 16 16 17 17 17 18 19
14 14 14 14 14 13 12 11 11 10 9 8 8 8 7 7 7 8 8 8 9 10 10 11 11 11 12 11 12 12 11 12 13 14 16 14 14 14 16 16 17 15 17
15 15 15 15 14 13 12 11 11 10 9 9 8 7 7 7 7 8 8 9 10 10 11 12 12 12 13 13 12 13 13 13 13 14 15 14 14 15 14 14 15 14 14
15 15 15 14 13 12 12 11 10 9 9 8 8 7 7 7 7 7 7 9 10 12 12 13 13 14 16 15 13 13 13 12 13 13 14 14 14 13 13 13 15 15 15
16 15 14 13 13 12 11 11 10 9 8 8 8 8 8 7 9 11 11 11 11 13 13 14 14 15 17 19 21 21 19 17 15 15 14 15 17 16 15 14 15 16 16
15 14 14 14 13 12 11 10 10 9 9 8 8 8 9 9 11 13 14 12 13 14 14 14 12 13 16 14 17 19 20 22 22 19 18 19 19 17 17 18 16 17 17
15 14 14 13 13 11 11 10 10 8 8 8 8 9 9 10 11 13 14 13 14 15 15 15 15 16 14 14 14 15 17 17 18 16 15 18 18 18 17 17 18 17 17
14 14 14 13 12 12 11 10 8 8 8 8 8 9 10 11 11 13 13 11 12 15 14 15 15 16 18 19 17 17 18 17 18 22 24 24 26 26 21 14 13 14 15
13 12 12 12 12 11 10 9 7 7 7 7 8 9 11 11 11 13 14 10 12 13 13 13 16 18 19 20 17 16 17 17 16 16 17 18 18 18 20 15 12 13 13
10 11 11 10 10 9 8 7 6 6 7 8 9 9 10 12 12 14 14 10 11 12 12 12 12 17 20 21 21 17 19 19 17 15 13 13 12 11 11 10 9 10 12
10 10 9 9 7 6 6 6 6 6 7 8 9 10 9 10 11 12 15 15 15 14 13 13 13 19 21 23 20 20 23 20 13 12 12 12 11 11 10 10 9 10 11
9 9 8 7 6 6 6 6 6 6 7 7 8 9 9 9 9 14 15 17 18 15 14 18 21 24 23 19 20 21 18 13 12 12 12 12 11 10 10 9 10 10 11
8 7 6 5 5 5 4 5 6 6 7 8 8 9 10 10 9 8 9 11 14 14 14 17 21 23 19 19 17 14 11 11 11 11 12 11 10 10 10 9 9 9 9
7 5 4 4 4 4 5 6 7 8 8 9 9 10 11 12 12 14 14 12 12 13 15 14 13 13 12 11 11 11 10 10 10 10 10 10 10 10 10 9 8 8 9
5 4 3 3 3 4 5 6 9 12 14 16 17 17 14 18 21 21 22 23 24 23 19 14 14 13 12 12 11 11 10 10 10 10 10 10 10 10 9 9 8 9 9
4 3 3 3 4 5 6 7 9 9 13 16 18 20 20 22 23 23 24 24 24 22 16 14 14 13 12 12 11 11 11 10 10 9 10 9 9 9 9 9 9 9 9
3 3 4 4 5 6 7 8 9 11 11 11 12 16 19 21 22 23 23 20 16 14 13 13 13 13 12 12 11 11 10 10 9 9 9 9 9 9 9 9 9 9 9
3 3 4 5 6 7 8 8 9 11 12 12 12 13 16 18 19 20 19 14 13 13 13 12 12 12 12 11 11 10 10 10 10 10 10 10 9 9 9 9 9 11 10
3 5 6 6 7 8 8 9 10 11 12 13 13 13 12 13 12 13 12 12 12 13 13 12 12 12 11 11 11 10 10 10 10 10 10 9 9 9 10 10 9 9 8
4 5 7 7 8 8 9 10 11 12 12 13 13 14 17 14 14 15 13 13 13 13 13 12 12 12 11 11 10 11 12 11 10 10 10 9 9 9 8 9 9 9 8
5 6 6 7 8 9 10 11 12 12 14 15 14 15 19 15 14 14 13 13 13 12 12 12 11 11 11 11 10 10 11 11 10 9 9 9 9 9 9 9 9 8 8
6 7 8 9 9 12 13 12 12 13 14 14 15 14 14 13 14 14 14 13 13 12 12 11 12 12 11 10 10 10 11 11 10 10 10 10 9 9 9 9 10 9 9
7 9 10 10 11 11 12 13 13 13 14 15 14 14 14 14 14 15 14 14 13 13 12 12 12 14 16 13 11 11 11 11 11 10 12 12 11 11 10 10 10 10 10
8 9 10 11 11 12 12 13 13 14 14 14 14 14 14 14 14 14 14 13 14 14 15 14 13 13 15 16 15 13 16 18 18 14 11 12 13 13 12 12 11 11 10
9 10 11 11 11 12 12 13 14 14 14 14 14 14 14 14 14 14 14 13 13 13 14 13 14 15 16 15 16 18 20 20 20 20 14 12 13 13 13 11 13 12 11
Wind_Direction
177 174 172 170 168 168 171 172 170 170 172 177 181 188 196 206 214 225 236 243 251 258 256 259 263 266 267 266 264 263 264 266 274 284 288 292 293 293 294 293 294 294 292
177 175 172 168 168 171 173 173 173 174 177 181 185 196 206 215 225 235 243 247 253 259 262 263 265 267 265 267 266 266 268 269 275 285 290 293 293 295 293 292 293 291 290
177 175 172 172 174 177 175 174 175 177 180 185 193 204 213 222 231 240 248 253 256 259 263 264 267 268 269 270 270 271 273 275 276 282 288 292 292 291 292 291 291 290 290
179 179 179 180 180 179 175 175 178 181 186 193 202 211 220 228 235 242 248 254 259 261 262 262 264 265 268 273 275 275 276 278 278 279 284 287 288 290 290 291 292 291 292
183 184 184 181 177 175 175 177 179 185 193 199 207 218 226 230 235 235 241 251 257 263 264 263 262 262 266 269 271 273 274 274 276 278 282 286 288 290 289 291 291 294 291
186 187 181 176 174 176 177 178 182 190 196 203 215 226 234 237 239 245 253 260 261 264 267 268 268 266 265 267 269 271 273 275 277 278 281 282 285 288 290 289 291 292 292
187 184 179 176 176 177 177 181 189 196 202 213 224 233 243 246 244 254 258 267 269 269 270 272 272 270 271 272 274 275 275 273 272 274 277 279 284 287 289 288 285 284 285
185 182 178 176 176 176 180 188 195 201 209 221 231 239 249 253 252 260 266 268 270 270 270 271 273 275 274 275 277 276 275 274 273 272 272 276 279 282 281 281 282 284 283
184 181 178 176 175 177 185 193 197 205 218 228 237 245 252 259 254 262 270 273 271 271 271 270 271 274 276 278 279 278 279 278 276 274 274 277 279 282 284 286 286 286 286
182 178 174 174 176 181 188 193 200 211 226 235 244 250 256 264 263 264 268 270 272 274 274 272 269 271 277 280 280 281 281 283 285 285 283 281 281 283 285 280 280 281 285
168 165 167 172 177 181 185 194 205 218 232 243 253 257 260 263 267 265 266 267 271 277 278 277 276 277 279 280 281 280 280 285 288 288 286 283 280 278 277 274 267 268 276
155 158 162 168 168 174 187 201 215 227 241 252 260 266 266 264 262 265 267 269 275 277 278 279 279 282 283 283 283 280 284 289 287 286 285 283 282 282 282 280 274 268 265
150 155 159 163 170 183 200 213 226 235 244 257 264 270 273 272 269 267 272 275 277 276 278 280 283 285 287 286 282 283 285 283 281 281 281 283 285 285 285 282 277 269 265
151 155 160 171 185 200 212 222 232 241 249 258 265 270 275 275 273 273 275 280 279 279 281 282 284 283 279 276 279 280 274 272 274 276 279 283 285 284 281 279 281 283 283
153 158 170 189 207 225 232 236 242 248 250 257 266 269 275 277 276 278 283 284 284 283 287 285 283 281 277 273 274 274 271 270 272 271 275 280 282 282 280 279 277 280 280
160 175 194 213 229 242 255 262 242 247 259 259 262 267 271 273 282 285 285 285 288 288 288 283 282 281 280 282 283 280 274 270 271 272 273 277 280 280 281 280 276 276 278
182 201 220 234 246 255 262 271 280 269 256 260 264 268 270 277 282 285 287 288 288 289 283 279 278 279 280 280 280 278 276 273 273 271 271 274 277 277 277 279 279 277 278
209 224 239 251 259 264 268 271 277 283 286 282 273 272 276 279 283 286 288 291 286 281 275 275 276 277 279 280 279 277 276 275 271 268 268 270 272 274 274 276 277 277 281
235 247 256 265 267 269 271 273 275 277 280 284 287 283 282 284 286 285 286 280 279 280 278 277 278 278 277 277 277 276 275 274 272 271 269 268 268 269 270 272 275 277 277
252 255 266 273 273 273 274 275 277 279 280 282 283 286 290 290 287 284 280 276 276 277 277 277 278 277 276 276 276 274 274 272 271 269 268 265 265 266 267 270 271 274 275
270 270 270 273 273 275 277 277 278 279 280 282 283 286 288 288 286 284 282 279 277 276 277 278 277 275 275 274 272 271 272 271 269 268 266 265 264 264 266 268 268 268 270
275 276 276 277 278 277 279 279 280 280 282 284 286 287 288 285 283 282 281 280 278 277 277 277 275 275 275 273 271 273 274 273 270 267 265 264 263 263 265 265 264 265 265
277 278 280 280 281 282 283 281 281 282 283 284 286 287 287 283 282 282 282 282 281 279 277 276 276 275 273 269 267 268 269 269 269 269 268 268 265 263 263 261 260 262 262
279 281 283 285 285 283 283 284 283 284 284 285 286 286 285 285 284 283 283 283 282 280 279 277 275 274 273 272 271 268 265 265 267 265 262 260 262 263 261 258 258 256 257
285 285 285 285 286 286 286 286 286 286 286 286 286 286 286 286 285 285 285 283 283 281 279 278 276 275 273 272 270 268 268 268 267 265 261 257 256 255 256 256 254 254 251
287 287 287 287 286 286 287 287 287 287 287 287 286 286 286 286 285 285 285 283 282 281 280 279 276 274 274 272 271 269 270 270 268 266 262 261 257 254 251 248 248 247 249
Height
1480 1484 1488 1492 1496 1499 1502 1504 1506 1508 1509 1510 1511 1511 1511 1511 1511 1510 1509 1507 1506 1505 1503 1501 1499 1497 1494 1491 1489 1486 1483 1479 1473 1467 1466 1463 1459 1455 1450 1446 1441 1437 1433
1477 1481 1485 1489 1492 1495 1498 1500 1502 1504 1505 1506 1507 1507 1507 1507 1506 1505 1504 1503 1501 1499 1498 1495 1493 1491 1488 1486 1483 1480 1477 1473 1468 1461 1458 1455 1452 1448 1443 1439 1435 1431 1427
1473 1477 1481 1485 1488 1491 1494 1496 1498 1500 1501 1502 1503 1503 1503 1502 1501 1500 1499 1497 1496 1494 1492 1490 1487 1485 1482 1480 1476 1473 1470 1466 1462 1456 1451 1448 1444 1441 1437 1432 1428 1424 1420
1469 1473 1477 1480 1484 1487 1490 1492 1494 1496 1497 1498 1498 1498 1498 1497 1496 1495 1493 1492 1490 1488 1486 1483 1481 1478 1475 1473 1469 1466 1463 1459 1455 1451 1445 1441 1438 1435 1431 1426 1421 1418 1414
1464 1469 1472 1476 1480 1483 1485 1488 1490 1491 1493 1493 1494 1493 1493 1492 1491 1489 1488 1485 1483 1481 1478 1476 1473 1471 1468 1465 1462 1458 1456 1452 1448 1444 1439 1435 1431 1428 1425 1421 1416 1411 1407
1459 1464 1468 1472 1475 1478 1481 1483 1485 1487 1488 1488 1488 1488 1487 1486 1485 1483 1481 1479 1476 1474 1471 1468 1466 1463 1460 1457 1454 1451 1448 1445 1441 1437 1433 1429 1425 1422 1418 1415 1410 1405 1399
1454 1459 1463 1467 1470 1474 1476 1479 1481 1482 1483 1483 1483 1482 1481 1480 1479 1477 1475 1472 1469 1467 1464 1461 1457 1454 1451 1448 1445 1442 1439 1436 1434 1431 1425 1421 1418 1415 1412 1407 1403 1399 1394
1449 1453 1458 1462 1466 1469 1472 1474 1476 1477 1478 1478 1477 1477 1475 1474 1472 1470 1468 1465 1461 1459 1456 1453 1449 1446 1443 1440 1436 1432 1429 1427 1425 1422 1418 1413 1410 1407 1404 1400 1396 1391 1386
1444 1448 1453 1457 1461 1464 1467 1469 1471 1472 1472 1472 1471 1470 1468 1467 1465 1463 1460 1456 1453 1450 1447 1444 1441 1438 1435 1432 1428 1424 1420 1417 1416 1413 1409 1406 1402 1399 1397 1393 1388 1384 1379
1440 1445 1449 1453 1457 1460 1462 1464 1465 1466 1466 1466 1465 1463 1462 1460 1458 1455 1452 1448 1444 1441 1438 1435 1432 1429 1426 1424 1421 1417 1412 1409 1407 1403 1400 1397 1393 1390 1388 1385 1381 1377 1373
1438 1442 1446 1450 1453 1456 1458 1459 1460 1460 1460 1459 1458 1456 1454 1452 1450 1447 1444 1441 1436 1432 1429 1426 1423 1421 1418 1415 1412 1409 1405 1402 1398 1395 1391 1387 1384 1382 1379 1376 1373 1371 1367
1436 1439 1443 1446 1449 1452 1453 1454 1455 1454 1453 1452 1450 1448 1446 1444 1441 1438 1436 1432 1429 1425 1420 1417 1414 1412 1409 1406 1403 1400 1397 1394 1390 1386 1383 1380 1377 1374 1371 1368 1365 1363 1360
1435 1438 1441 1443 1446 1447 1448 1449 1449 1448 1447 1445 1443 1440 1438 1435 1433 1430 1427 1423 1420 1416 1412 1409 1406 1403 1400 1397 1394 1391 1389 1386 1382 1379 1375 1372 1369 1366 1363 1360 1358 1355 1352
1434 1436 1439 1441 1442 1443 1443 1443 1442 1441 1440 1438 1435 1432 1429 1426 1424 1421 1418 1414 1411 1408 1404 1400 1397 1393 1390 1387 1384 1382 1379 1377 1374 1371 1368 1365 1362 1359 1357 1354 1352 1349 1347
1432 1434 1436 1437 1438 1438 1438 1437 1436 1434 1433 1430 1427 1424 1421 1417 1415 1413 1410 1406 1403 1400 1396 1391 1388 1385 1381 1378 1376 1373 1371 1369 1366 1364 1361 1358 1356 1353 1351 1349 1347 1344 1342
1430 1432 1433 1433 1433 1432 1431 1430 1428 1427 1425 1422 1419 1416 1412 1409 1406 1403 1400 1397 1394 1391 1387 1382 1379 1376 1373 1371 1368 1366 1363 1361 1359 1357 1354 1352 1349 1347 1345 1343 1341 1339 1337
1428 1428 1428 1428 1427 1426 1425 1422 1420 1417 1415 1412 1410 1407 1404 1400 1397 1393 1390 1387 1384 1381 1378 1373 1370 1368 1365 1362 1360 1358 1355 1353 1351 1349 1347 1345 1343 1341 1340 1338 1336 1334 1332
1424 1424 1424 1423 1422 1420 1418 1415 1412 1409 1405 1402 1400 1397 1394 1390 1387 1384 1381 1377 1373 1371 1368 1364 1361 1359 1356 1354 1352 1350 1347 1346 1344 1342 1340 1339 1337 1336 1334 1333 1331 1330 1328
1420 1419 1418 1417 1415 1413 1410 1407 1404 1400 1396 1392 1389 1387 1384 1381 1377 1374 1371 1368 1364 1361 1359 1356 1353 1350 1348 1346 1344 1342 1340 1338 1337 1335 1334 1332 1331 1330 1328 1327 1326 1325 1323
1415 1414 1412 1410 1408 1405 1403 1399 1396 1392 1388 1384 1381 1378 1375 1371 1367 1364 1362 1359 1355 1352 1350 1347 1345 1342 1340 1338 1336 1334 1332 1331 1329 1328 1327 1325 1324 1324 1323 1322 1321 1320 1319
1409 1407 1406 1403 1400 1398 1394 1391 1387 1384 1380 1376 1372 1370 1367 1363 1359 1355 1353 1350 1347 1344 1341 1339 1336 1334 1332 1330 1328 1326 1325 1323 1322 1321 1320 1319 1318 1318 1317 1316 1316 1315 1314
1403 1400 1398 1395 1392 1389 1386 1383 1379 1375 1371 1367 1363 1360 1357 1354 1350 1346 1343 1340 1338 1335 1333 1330 1328 1326 1324 1322 1320 1319 1317 1316 1315 1314 1313 1312 1312 1311 1311 1311 1310 1310 1309
1396 1393 1390 1387 1384 1381 1377 1374 1370 1366 1362 1359 1355 1351 1348 1344 1341 1337 1334 1331 1329 1326 1324 1322 1319 1317 1315 1314 1312 1311 1309 1308 1307 1307 1306 1306 1306 1305 1305 1305 1305 1304 1304
1388 1385 1382 1379 1375 1372 1368 1365 1361 1357 1354 1350 1346 1342 1339 1335 1332 1328 1325 1322 1320 1317 1315 1312 1310 1308 1306 1305 1304 1302 1301 1300 1300 1299 1299 1299 1298 1298 1299 1298 1298 1299 1299
1381 1378 1374 1371 1367 1363 1360 1356 1352 1348 1344 1341 1337 1333 1329 1326 1322 1319 1316 1313 1310 1308 1305 1303 1301 1299 1297 1296 1294 1293 1292 1292 1292 1292 1292 1292 1291 1291 1292 1292 1292 1293 1293
1373 1370 1366 1363 1359 1355 1351 1347 1343 1339 1335 1331 1328 1324 1320 1317 1313 1310 1307 1304 1301 1298 1296 1294 1292 1290 1288 1287 1285 1284 1284 1283 1283 1284 1284 1284 1284 1284 1285 1285 1285 1286 1287